Notices

What's New in latest Release from April 7th, 2021:

- Updated Glossary, including Speed of Maximum Gust, and Total Hourly Precipitation

- Updated national and regional climate services offices contacts and prices information

- Addition of station inventory lists for 1981-2010, 1971-2000, and 1961-1990 Normals.

If you haven't already, please take our survey and provide feedback about our website: https://eccc.sondage-survey.ca/f/LanguageSelection.aspx?s=442ca660-fcf1-47c0-95a9-59707d6fd709

Hourly Data Report for April 23, 2021

CLYDE RIVER A
NUNAVUT
Current Station Operator: NAVCAN

70°29'09.000" N
68°31'01.000" W
26.50 m
2400804
71090
YCY

Download Data

Hourly Data (April 2021)
Hourly Data Report for April 23, 2021
TIME
LST
Temp Definition
°C
Dew Point Definition
°C
Rel Hum Definition
%
Precip. Amount Definition
mm

Wind Dir Definition
10's deg

Wind Spd Definition
km/h
Visibility Definition
km
Stn Press Definition
kPa
Hmdx Definition


Wind Chill Definition


Weather Definition


00:00 -10.4 -13.7 77 0.2 13 9 16.1 101.12   -15 LegendNANA
01:00 -14.1 -16.2 84 0.0 LegendMM 4 16.1 101.13   -17 LegendNANA
02:00 -12.8 -15.4 81 0.0 13 5 16.1 101.16   -16 LegendNANA
03:00 -14.1 -15.8 87 0.0 12 15 16.1 101.18   -22 LegendNANA
04:00 -14.0 -15.8 87 0.0 14 15 16.1 101.17   -22 LegendNANA
05:00 -13.0 -14.3 90 0.0 13 18 16.1 101.17   -21 LegendNANA
06:00 -11.4 -12.8 89 0.0 9 8 16.1 101.19   -16 LegendNANA
07:00 -10.2 -11.8 88 0.0 12 13 16.1 101.17   -16 LegendNANA
08:00 -10.5 -11.6 92 0.0   0 16.1 101.18     LegendNANA
09:00 -9.2 -10.6 90 0.0 LegendMM 4 16.1 101.19   -11 LegendNANA
10:00 -7.7 -8.6 93 0.0 13 18 16.1 101.18   -15 LegendNANA
11:00 -7.4 -8.3 93 0.0 12 15 16.1 101.15   -14 LegendNANA
12:00 -7.0 -7.8 94 0.0 11 17 16.1 101.14   -13 LegendNANA
13:00 -7.2 -7.7 96 0.0 12 17 16.1 101.13   -14 LegendNANA
14:00 -6.9 -7.3 97 0.0 13 13 16.1 101.17   -12 LegendNANA
15:00 -7.1 -7.4 98 0.0 13 13 16.1 101.18   -13 LegendNANA
16:00 -7.6 -7.9 98 0.0 13 8 2.8 101.22   -12 Snow
17:00 -8.0 -8.3 98 0.0 11 9 16.1 101.24   -13 LegendNANA
18:00 -8.5 -8.9 97 0.0 9 5 0.4 101.28   -11 Heavy Snow
19:00 -9.2 -9.6 97 0.0 LegendMM 4 0.2 101.32   -11 Freezing Fog
20:00 -9.8 -10.3 96 0.0 LegendMM 4 0.2 101.34   -12 Freezing Fog
21:00 -11.1 -11.8 95 0.0 6 4 0.2 101.39   -14 Heavy Snow
22:00 -11.9 -12.6 95 0.0 7 5 0.4 101.43   -15 Heavy Snow
23:00 -13.1 -13.9 94 0.0 35 8 0.4 101.47   -18 Freezing Fog

Notes on Data Quality.

Legend

  • E = Estimated
  • M = Missing
  • NA = Not Available*
  • [empty] = Indicates an unobserved value
Date modified: